Terug naar catalogus

STARLINK-36112

ActiefCommunicatieVLEO
NORAD 66944·PAYLOAD·🇺🇸 United States

Gelanceerd Dec 7, 2025 vanaf Vandenberg Space Force Base

Loading…

Volgende Passages (komende 24 uur)

TLE

VersSource: CelesTrak SupGP

Epoch: Sep 14, 2026, 21:37 UTC

1 66944C 25286V   26257.90118056  .00012281  00000+0  36267-3 0  2571
2 66944  53.1577 195.6200 0001253  89.3926 202.4851 15.34398410    11

Volg STARLINK-36112 in realtime met AllMySat

Download on the App Store